EW4028 Weather Reports


time (UTC)temp
C
wind
direction
speed
KPH
gust
KPH
rain 1hr
cm
rain 24hr
cm
rain mn
cm
humidity
%
barometer
mb
20260906154559 30 49 3.2 8.0 0.00 0.00 0.00 71 1014.8
20260906153110 30 119 0.0 9.7 0.00 0.00 0.00 72 1014.5
20260906151553 30 107 0.0 8.0 0.00 0.00 0.00 73 1014.6
20260906150049 28 340 0.0 11.3 0.00 0.00 0.00 77 1014.5
20260906144549 28 100 0.0 8.0 0.00 0.00 0.00 76 1014.6
20260906143047 28 350 0.0 4.8 0.00 0.00 0.00 77 1014.6
20260906141559 28 81 0.0 6.4 0.00 0.00 0.00 78 1014.5
20260906140043 27 106 3.2 11.3 0.00 0.00 0.00 79 1014.3
20260906134547 27 103 0.0 8.0 0.00 0.00 0.00 81 1014.2
20260906133046 26 123 1.6 14.5 0.00 0.00 0.00 83 1014.3
20260906131557 26 44 0.0 6.4 0.00 0.00 0.00 85 1014.2
20260906130052 25 89 0.0 8.0 0.00 0.00 0.00 87 1014.1
20260906124538 25 335 0.0 11.3 0.00 0.00 0.00 89 1014.1
20260906123039 -17 0.0 0.0 0.00 0.00 0.00 1013.9
20260906121536 -17 0.0 0.0 0.00 0.00 0.00 1013.7
20260906120027 -17 0.0 0.0 0.00 0.00 0.00 1013.7
20260906114529 -17 0.0 0.0 0.00 0.00 0.00 1013.6
20260906113019 -17 0.0 0.0 0.00 0.00 0.00 1013.5
20260906111513 -17 0.0 0.0 0.00 0.00 0.00 1013.3
20260906110011 -17 0.0 0.0 0.00 0.00 0.00 1013.2
20260906104506 -17 0.0 0.0 0.00 0.00 0.00 1013.1
20260906103002 -17 0.0 0.0 0.00 0.00 0.00 1013.1
20260906101603 -17 0.0 0.0 0.00 0.00 0.00 1013.0
20260906100052 -17 0.0 0.0 0.00 0.00 0.00 1012.7
20260906094558 -17 0.0 0.0 0.00 0.00 0.00 1012.6
20260906093049 -17 0.0 0.0 0.00 0.00 0.00 1012.4
20260906091541 26 123 0.0 0.0 0.00 0.00 0.00 81 1012.3
20260906090049 26 110 0.0 4.8 0.00 0.00 0.00 80 1012.1
20260906084536 26 108 0.0 4.8 0.00 0.00 0.00 78 1011.9
20260906083039 27 91 0.0 3.2 0.00 0.00 0.00 78 1011.8
20260906081532 27 118 1.6 4.8 0.00 0.00 0.00 78 1011.8
20260906080037 26 123 0.0 0.0 0.00 0.00 0.00 77 1011.9
20260906074530 27 119 0.0 0.0 0.00 0.00 0.00 76 1011.9
20260906073025 27 91 0.0 0.0 0.00 0.00 0.00 75 1011.9
20260906071527 27 150 0.0 0.0 0.00 0.00 0.00 74 1012.0
20260906070022 27 89 0.0 0.0 0.00 0.00 0.00 73 1012.1
20260906064521 27 101 0.0 3.2 0.00 0.00 0.00 72 1012.1
20260906063020 27 126 0.0 0.0 0.00 0.00 0.00 71 1012.3
20260906061518 27 105 0.0 0.0 0.00 0.00 0.00 70 1012.4
20260906060021 27 110 0.0 0.0 0.00 0.00 0.00 69 1012.3
20260906054512 28 100 0.0 0.0 0.00 0.00 0.00 66 1012.3
20260906053009 28 96 0.0 1.6 0.00 0.00 0.00 66 1012.2
20260906051514 28 107 0.0 0.0 0.00 0.00 0.00 65 1012.1
20260906050006 28 117 0.0 1.6 0.00 0.00 0.00 64 1012.1
20260906044506 28 63 0.0 0.0 0.00 0.00 0.00 64 1012.1
20260906043008 28 113 0.0 1.6 0.00 0.00 0.00 63 1012.2
20260906041502 28 116 0.0 0.0 0.00 0.00 0.00 63 1012.2
20260906040001 28 103 0.0 0.0 0.00 0.00 0.00 63 1012.0
20260906034606 28 101 0.0 0.0 0.00 0.00 0.00 63 1011.7
20260906033100 28 49 0.0 0.0 0.00 0.00 0.00 63 1011.8
20260906031558 28 49 0.0 0.0 0.00 0.00 0.00 62 1011.8
20260906030056 29 49 0.0 0.0 0.00 0.00 0.00 61 1011.5
20260906024557 29 49 0.0 0.0 0.00 0.00 0.00 62 1011.4
20260906023054 29 48 0.0 0.0 0.00 0.00 0.00 61 1011.3
20260906021558 29 47 0.0 0.0 0.00 0.00 0.00 60 1011.0
20260906020049 30 47 0.0 0.0 0.00 0.00 0.00 59 1010.7
20260906014551 30 47 0.0 0.0 0.00 0.00 0.00 59 1010.5
20260906013045 30 47 0.0 0.0 0.00 0.00 0.00 58 1010.4
20260906011542 30 47 0.0 0.0 0.00 0.00 0.00 57 1010.3
20260906010048 31 46 0.0 0.0 0.00 0.00 0.00 55 1010.3
20260906004534 32 103 0.0 0.0 0.00 0.00 0.00 52 1010.1
20260906003031 32 65 0.0 0.0 0.00 0.00 0.00 50 1010.1
20260906001542 33 22 0.0 9.7 0.00 0.00 0.00 48 1010.3
20260906000022 34 30 0.0 1.6 0.00 0.00 0.00 48 1010.4
20260905234518 35 23 0.0 1.6 0.00 0.00 0.00 47 1010.4
20260905233020 35 6 0.0 4.8 0.00 0.00 0.00 46 1010.4
20260905231517 35 30 0.0 3.2 0.00 0.00 0.00 45 1010.6
20260905230011 35 18 0.0 6.4 0.00 0.00 0.00 43 1010.8
20260905224508 36 23 3.2 8.0 0.00 0.00 0.00 42 1011.2
20260905223006 36 352 3.2 14.5 0.00 0.00 0.00 41 1011.6
20260905221603 36 24 3.2 8.0 0.00 0.00 0.00 41 1012.2
20260905220058 -17 12 1.6 8.0 0.00 0.00 0.00 1012.4
20260905214552 -17 304 3.2 14.5 0.00 0.00 0.00 1012.3
20260905213050 -17 16 0.0 1.6 0.00 0.00 0.00 1012.2
20260905211546 -17 304 0.0 6.4 0.00 0.00 0.00 1012.3
20260905210050 -17 303 3.2 14.5 0.00 0.00 0.00 1012.5
20260905204535 -17 344 0.0 9.7 0.00 0.00 0.00 1012.7
20260905203030 -17 31 1.6 11.3 0.00 0.00 0.00 1012.9
20260905201529 -17 351 0.0 8.0 0.00 0.00 0.00 1013.2
20260905200030 -17 347 4.8 9.7 0.00 0.00 0.00 1013.4
20260905194516 -17 280 3.2 16.1 0.00 0.00 0.00 1013.4
20260905193017 -17 348 4.8 12.9 0.00 0.00 0.00 1013.6
20260905191507 -17 16 3.2 9.7 0.00 0.00 0.00 1013.6
20260905190005 -17 307 1.6 9.7 0.00 0.00 0.00 1013.8
20260905184607 -17 9 0.0 14.5 0.00 0.00 0.00 1014.0
20260905183053 -17 23 3.2 11.3 0.00 0.00 0.00 1014.2
20260905181550 -17 22 0.0 8.0 0.00 0.00 0.00 1014.4
20260905180045 -17 302 6.4 20.9 0.00 0.00 0.00 1014.5
20260905174540 -17 282 4.8 12.9 0.00 0.00 0.00 1014.7
20260905173043 -17 262 0.0 3.2 0.00 0.00 0.00 1014.8
20260905171531 -17 360 0.0 4.8 0.00 0.00 0.00 1014.9
20260905170026 -17 335 3.2 9.7 0.00 0.00 0.00 1015.0
20260905164523 -17 359 0.0 4.8 0.00 0.00 0.00 1015.0
20260905163018 -17 318 0.0 6.4 0.00 0.00 0.00 1015.2
20260905161514 -17 236 0.0 4.8 0.00 0.00 0.00 1015.3
20260905160009 -17 58 1.6 9.7 0.00 0.00 0.00 1015.3